Volver al catálogo

FENGYUN 1C DEB

LostSSO
NORAD 37022·DEBRIS·🇨🇳 China

Lanzado May 10, 1999 desde Taiyuan Satellite Launch Center

Loading…

Próximos Pases (próximas 24 horas)

TLE

ObsoletoSource: Space-Track

Época: Sep 25, 2023, 02:18 UTC

1 37022U 99025EDE 23268.09634595  .00012261  00000-0  58434-2 0  9999
2 37022  98.4690 222.7452 0135337 342.4925  24.6236 14.14697799791059

Sigue FENGYUN 1C DEB en tiempo real con AllMySat

Download on the App Store